星链-31403 (STARLINK-31403 )

导读 | 星芒AI

STARLINK-31403 是 SpaceX Starlink 卫星互联网项目中的一颗低轨卫星,属于第三代星链卫星(v1.5 或 v2 架构)。该卫星于 2023 年发射,旨在为全球用户提供高速、低延迟的宽带互联网服务。它运行在约 550 公里的轨道高度,配备先进通信设备和激光链路,以提升网络性能和卫星间数据传输效率。作为 Starlink 网络的一部分,STARLINK-31403 支持偏远地区的互联网接入,推动全球数字连接。

基本信息
目录编号:
59186
目录名称:
STARLINK-31403
国际标识:
2024-045J
轨道中心:
EARTH
卫星名称:
星链-31403
卫星全名:
星链-31403 (STARLINK-31403 )
卫星状态:
在轨 (已飞行649 天)
发射日期:
2024-03-10 UTC
国别 :
美国 (US)
星等 :
--
轨道信息
数据来源 国际轨道数据 AOE轨道数据
星历时间 2025-12-18T20:36:44+0800
1天前
查看轨道信息
2025-12-15T14:00:00+0800
4天前
查看轨道信息
半长轴 6861.182km 6861.205km
偏心率 0.0001185 0.0001055
轨道倾角 42.999° 43.004°
近地点辐角 274.353° 309.568°
升交点赤经 169.486° 187.986°
平近点角 85.718° 16.427°
近地点 482.233km 482.346km
远地点 483.861km 483.794km
周期 94.267分钟 94.267分钟
每日圈数 15.275814 15.27574
详细信息
固有亮度:
5
最大亮度:
0.3
卫星平台:
Starlink v2.0 mini
覆盖范围:
全球
运营商:
太空探索技术公司
运营商所在国:
美国
制造商(研发单位):
太空探索技术公司
制造商所在国:
美国
使用方式:
暂无
卫星简介
星链(Starlink)计划是由太空探索技术公司(SpaceX)提出的一个巨型低轨卫星互联网星座项目,计划在2019年至2024年间在太空搭建由约1.2万颗卫星组成的“星链”网络,其中1584颗将部署在地球上空550千米处的近地轨道,并从2020年开始工作。该卫星仍在工作。
2D轨道图
3D轨道图
轨道高度分析图
轨道倾角分析图
轨道综合分析图
查看轨道综合分析图